Tracking 19219 objects as of 20-Jul-2018
HD Live streaming from Space Station
objects crossing your sky now

TITAN 3C TRANSTAGE R/B

Track TITAN 3C TRANSTAGE R/B now!


NORAD ID: 3692
Int'l Code: 1969-013B
Perigee: 35,882.5 km
Apogee: 37,274.2 km
Inclination: 6.0 °
Period: 1,476.4 minutes
Semi major axis: 42949 km
RCS: 2.2907 m2 (large)
Launch date: February 9, 1969
Source: United States (US)
Launch site: AIR FORCE EASTERN TEST RANGE (AFETR)

Note: This is a ROCKET BODY
aabbcc
Your satellite tracking list
Your tracking list is empty




NASA's NSSDC Master Catalog

Two Line Element Set (TLE):
1  3692U 69013B   18200.60138987 -.00000243 +00000-0 +00000-0 0  9992
2  3692 005.9674 299.7523 0162014 130.8038 266.4780 00.97536805014143
Source of the keplerian elements: AFSPC